Volver al catálogo

HULIANWANG DIGUI-166

ActivoComunicacionesPO
NORAD 68658·PAYLOAD·🇨🇳 China

Lanzado Apr 8, 2026 desde Taiyuan Satellite Launch Center

Loading…

Próximos Pases (próximas 24 horas)

TLE

ActualizadoSource: Space-Track

Época: Sep 14, 2026, 13:27 UTC

1 68658U 26076C   26257.56083683  .00000026  00000-0  26669-4 0  9996
2 68658  86.4989  13.6269 0001289 108.3555 251.7719 13.24408408 21204

Sigue HULIANWANG DIGUI-166 en tiempo real con AllMySat

Download on the App Store